Afonso Pena Airport
SBCT : rendu visible

Aérodrome :











RETROUVEZ-NOUS SUR...

 
LOGIN :

S'inscrire | Disclaimer

   EN    FR    IT 

 









Légende :    VFR   VFR Marginal   IFR   IFR Intensif   IFR Très Intensif
Visi : 
Plafond : 
>= 8 km
>= 3000ft
5 à 8 km
1000 à 3000 ft
1500m à 5 km
500 à 1000 ft
800 à 1500m
200 à 500 ft
< 800m
< 200 ft
Symboles :   Orages  Brouillard  Fortes neiges  Fortes précipitations  Vent > 20 kt






- Altitude de l'aérodrome : 2988 ft
- Code IATA : CWB


SBCT - Afonso Pena

DERNIER METAR :
  • 221400Z 10009KT 9999 OVC014 12/06 Q1027

METARs EXPIRÉS :
  • 221300Z 09011KT 9999 OVC013 13/07 Q1026
  • 221200Z 11009KT 9999 OVC012 10/07 Q1026

TAF TAF SBCT
Valide du 22 à 12h jusqu'au 23 à 12h UTC


220900Z 2212/2312 08009KT 9999 OVC012 TX27/2218Z TN12/2309Z
BECMG 2218/2220 11007KT OVC010
BECMG 2300/2302 10006KT BKN005
PROB30 2304/2308 2000 BR OVC005
BECMG 2309/2311 9999 BKN010 RMK PEQ
FIR SBCW / Amérique du Sud



MET'MAP, la Météo Aéronautique d'un coup d'oeil ! - Copyright ORBIFLY Décembre 2007 - Disclaimer

ORBIFLY MET'MAP TEAM :

Programmation & Développement : Alexandra Zaïnal
Sur une idée originale de : Baudouin d'Aumeries
Assistance à la programmation : Marc-Olivier Méhu
Soutien technique & logistique : Manuel Goepfert

Contact : metmap@orbifly.com




SOURCES & CREDITS :

   NOAA       Earth
Advisory